Simultaneous Nadir Overpasses (SNOs) Predictions

Prediction of SNOs between GOES-15 and METOP-A Satellite Orbit:

Table of predicted SNOs for the next 14.0 days since TLE Epoch: 6/8/2017
Index Date Time (GOES-15) GOES-15 Lat,Lon METOP-A Lat,Lon Distance(km) Time Diff (sec)
1 06/10/2017 18:27:48 -0.14,-135.28 -0.20,-135.12 19.15 80
2 06/13/2017 06:26:08 0.15,-135.29 0.30,-134.72 65.41 80
3 06/14/2017 18:47:38 -0.14,-135.36 0.75,-139.28 447.14 80
4 06/15/2017 18:24:19 -0.15,-135.37 -0.39,-134.29 123.30 80
5 06/17/2017 06:45:58 0.14,-135.35 -0.65,-138.88 402.36 80
6 06/18/2017 06:22:38 0.15,-135.36 0.49,-133.89 167.81 80
7 06/19/2017 18:44:09 -0.14,-135.42 0.55,-138.45 345.63 80
8 06/20/2017 18:20:49 -0.15,-135.42 -0.59,-133.46 223.97 80
9 06/22/2017 06:42:29 0.13,-135.39 -0.45,-138.05 303.14 80




NCC Satellite Simultaneous Nadir Overpasses (SNOs) Prediction Service
